Regional Weather Roundup
Issued by NWS Portland, ME

Home | Current Version | Previous Version | Text Only | Print | Product List | Glossary On
Versions: 1 2 3 4 5 6 7 8 9 10 11 12 13 14 15 16 17 18 19 20 21 22 23 24 25 26 27 28 29 30 31 32 33 34 35 36 37 38 39 40 41 42 43 44 45 46 47 48 49 50
000
ASUS41 KGYX 280610
RWRGYX
WEATHER ROUNDUP FOR MAINE AND NEW HAMPSHIRE
NATIONAL WEATHER SERVICE GRAY ME
200 AM EDT MON JUL 28 2014

MEZ002-005-006-010-012-015-018-020-021-024-026-027-029-280700-
MAINE

CITY           SKY/WX    TMP DP  RH WIND       PRES   REMARKS
PORTLAND       CLOUDY    66  65  96 S6        29.66F FOG
6HR MIN TEMP:  66; 6HR MAX TEMP:  68;

SANFORD        CLOUDY    68  64  88 CALM      29.65F VSB 1/2
BAR HARBOR     CLOUDY    64  64 100 S7        29.70F
WISCASSET      FOG       67  66  97 CALM      29.68F VSB 1/2
6HR MIN TEMP:  65; 6HR MAX TEMP:  67; 6HR PCP:  0.06;

ROCKLAND       CLOUDY    64  64 100 S3        29.67F VSB 3/4
FRYEBURG       CLOUDY    67  66  97 N3        29.67S FOG
6HR MIN TEMP:  67; 6HR MAX TEMP:  70; 6HR PCP:  0.12;

LEWISTONAUBURN CLOUDY    64  63  94 CALM      29.68S VSB 3/4
AUGUSTA        FOG       65  64  97 CALM      29.69F VSB 1/4
6HR MIN TEMP:  64; 6HR MAX TEMP:  65; 6HR PCP: TRACE;

WATERVILLE     CLOUDY    64  64 100 CALM      29.65S VSB 1/4
BANGOR         FOG       65  63  93 S6        29.70R VSB 1
6HR MIN TEMP:  65; 6HR MAX TEMP:  65; 6HR PCP:  0.02;

GREENVILLE       N/A     62  61  96 CALM      29.68F
6HR MIN TEMP:  62; 6HR MAX TEMP:  65;

MILLINOCKET    CLOUDY    65  63  93 CALM      29.71R
6HR MIN TEMP:  65; 6HR MAX TEMP:  68; 6HR PCP: TRACE;

HOULTON        CLOUDY    64  62  93 S6        29.68F
6HR MIN TEMP:  64; 6HR MAX TEMP:  67; 6HR PCP: TRACE;

PRESQUE ISLE   CLOUDY    64  59  82 S8        29.69S
6HR MIN TEMP:  64; 6HR MAX TEMP:  66;

FRENCHVILLE    CLOUDY    63  62  97 S8        29.66F
6HR MIN TEMP:  61; 6HR MAX TEMP:  63; 6HR PCP:  0.09;

CARIBOU        CLOUDY    65  63  93 S6        29.67F
6HR MIN TEMP:  65; 6HR MAX TEMP:  66; 6HR PCP:  0.02;

$$

NHZ002-005-008-009-011-012-014-280700-
NEW HAMPSHIRE

CITY           SKY/WX    TMP DP  RH WIND       PRES   REMARKS
PORTSMOUTH     FOG       67  66  97 CALM      29.65S VSB 1/8
ROCHESTER      FOG       69  67  93 CALM      29.65F VSB 1/2
6HR MIN TEMP:  68; 6HR MAX TEMP:  69;

NASHUA         CLOUDY    71  70  97 CALM      29.67S
MANCHESTER     MOCLDY    71  69  93 S5        29.65S FOG
6HR MIN TEMP:  71; 6HR MAX TEMP:  76;

CONCORD        PTCLDY    69  68  96 CALM      29.66S FOG
6HR MIN TEMP:  68; 6HR MAX TEMP:  73;

LACONIA          N/A     68  64  88 W6        29.66R
PLYMOUTH       CLOUDY    66  65  96 CALM      29.66S FOG
BERLIN         MOCLDY    59  58  96 CALM      29.69F FOG
6HR MIN TEMP:  58; 6HR MAX TEMP:  70; 6HR PCP:  0.12;

WHITEFIELD     MOCLDY    61  59  93 CALM      29.68F
6HR MIN TEMP:  60; 6HR MAX TEMP:  70; 6HR PCP:  0.02;

JAFFREY        MOCLDY    67  65  93 CALM      29.68F
6HR MIN TEMP:  66; 6HR MAX TEMP:  72;

LEBANON        FOG       65  63  93 CALM      29.65S VSB 1/4
6HR MIN TEMP:  64; 6HR MAX TEMP:  71;

MT WASHINGTON  FOG       50  50 100 W22         N/A  VSB 0
6HR MIN TEMP:  49; 6HR MAX TEMP:  52; 6HR PCP:  0.07;

$$

VTZ005-007-008-280700-
VERMONT

CITY           SKY/WX    TMP DP  RH WIND       PRES   REMARKS
ST JOHNSBURY     N/A     61  60  97 MISG      29.66S
MONTPELIER     FOG       61  61 100 S6        29.70F VSB 1/4
BURLINGTON     PTCLDY    64  61  90 CALM      29.64F
$$

MAZ007-012-024-CTZ003-RIZ002-NYZ038-NYZ072-280700-
SOUTHERN NEW ENGLAND AND NY

CITY           SKY/WX    TMP DP  RH WIND       PRES   REMARKS
BOSTON         PTCLDY    68  67  96 S5        29.66F
WORCESTER      PTCLDY    64  61  90 W6        29.68F
NANTUCKET      FOG       67  66  97 SE3       29.70F VSB 1/4
PROVIDENCE     CLOUDY    71  69  93 S9        29.67F FOG
HARTFORD       CLOUDY    65  62  90 CALM      29.63F
ALBANY         CLOUDY    71  68  90 CALM      29.61F
NEW YORK CITY  TSTM      77  72  84 S6        29.61F
$$

ANZ081-ANZ082-ANZ150-NHZ014-MEZ023>029-280700-
COASTAL MARINE OBSERVATIONS

STATION/POSITION TIME  TEMP    WIND        PRES    WAVE
                       AIR SEA DIR/SP/G            HT/PER
                 (UTC) (F)     (DEG/KT/KT) (MB)    (FT/S)
MOUNT DESERT ROC 0600   60                 1005.4F
MATINICUS ROCK   0500          190/ 15/ 16 1005.0F
PORTLAND WX BUOY 0600   65 60  170/  2/  4 1004.1F   3/ 5
WELLS            0600   62 55   20/  3/  4 1003.2F
ISLE OF SHOALS   0500   67     200/ 13/ 14 1003.9F
JEFFREYS LEDGE   0600      62                N/A     3/ 5
CASHES LEDGE BUO 0600   67 65  180/ 10/ 12 1004.1F   3/ 5
$$

.............KEY..............
   WCI - WIND CHILL
   TC  - TEMPERATURE IN CELSIUS
   VSB - VISIBILITY IN MILES
   HX  - HEAT INDEX
   FAIR- INDICATES FEW OR NO CLOUDS BELOW 12,000 FT, WITH NO
         SIGNIFICANT WEATHER AND/OR OBSTRUCTIONS TO VISIBILITY.




USA.gov is the U.S. government's official web portal to all federal, state and local government web resources and services.